Regional Weather Roundup
Issued by NWS Jackson, KY

Home | Current Version | Previous Version | Graphics & Text | Print | Product List | Glossary On
Versions: 1 2 3 4 5 6 7 8 9 10 11 12 13 14 15 16 17 18 19 20 21 22 23 24 25 26 27 28 29 30 31 32 33 34 35 36 37 38 39 40 41 42 43 44 45 46 47 48 49
000
ASUS43 KJKL 031610
RWRJKL

EAST KENTUCKY HOURLY WEATHER ROUNDUP
NATIONAL WEATHER SERVICE JACKSON KY
1100 AM EST TUE MAR 03 2015

NOTE: "FAIR" INDICATES FEW OR NO CLOUDS BELOW 12,000 FEET WITH
NO SIGNIFICANT WEATHER AND/OR OBSTRUCTIONS TO VISIBILITY.

* THESE REPORTS ARE NOT UNDER NWS QUALITY CONTROL AND MAY NOT
  REPORT WEATHER SUCH AS PRECIPITATION AND FOG.

KYZ079-080-083-085-087-088-110-112-115-119-120-031700
...EASTERN KENTUCKY...

CITY           SKY/WX    TMP DP  RH WIND       PRES   REMARKS
JACKSON        CLOUDY    42  31  64 S5        30.04F
LONDON         CLOUDY    48  39  71 CALM      30.06F
SOMERSET*      CLOUDY    50  45  81 S6        30.08F
MONTICELLO*    CLOUDY    55  51  86 S8        30.09F
MIDDLESBORO*   CLOUDY    42  38  84 S9        30.16F
HAZARD APT*    CLOUDY    48  41  76 S5        30.06F
BLACK MTN*       N/A     39  39 100 SW12        N/A  WCI  32
PIKEVILLE APT* CLOUDY    43  37  81 S8        30.06F
BIG SANDY*     CLOUDY    41  34  78 S6        30.07F
MOREHEAD APT*  CLOUDY    37  30  75 SE8       30.05F WCI  31
$$

KYZ035-036-041-042-044-050-067-078-099-031700
...CENTRAL KENTUCKY...

CITY           SKY/WX    TMP DP  RH WIND       PRES   REMARKS
MT STERLING*   DRIZZLE   39  36  87 S12       30.03F WCI  32
FLEMING/MASON* DRIZZLE   36  30  80 S8        30.02F WCI  29
DANVILLE*      CLOUDY    43  39  87 S12       30.04F
RICHMOND*      CLOUDY    48  43  81 S13       30.03F
LEXINGTON      LGT RAIN  40  35  83 S14       30.00F WCI  32
FRANKFORT      LGT RAIN  38  33  82 S8        29.99F WCI  32
$$

KYZ091>093-OHZ055-061-077-WVZ005-015-034-035-042-031700
...SOUTHERN OHIO/WEST VIRGINIA...

CITY           SKY/WX    TMP DP  RH WIND       PRES   REMARKS
COVINGTON      LGT RAIN  33  29  85 SE9       29.96F FOG     WCI  25
COLUMBUS       CLOUDY    30  19  63 SE10      30.02F WCI  21
DAYTON         FRZ RAIN  30  25  81 SE16      29.92F WCI  19
WILMINGTON     MIX PCPN  32  26  78 SE9       29.97F WCI  24
HUNTINGTON     CLOUDY    34  30  85 SE5       30.06F WCI  30
CHARLESTON     LGT RAIN  38  34  85 S6        30.07F FOG     WCI  33
PINEVILLE*     CLOUDY    39  38  98 MISG      30.19F
BECKLEY        CLOUDY    35  29  78 SE13G22   30.14S WCI  26
BLUEFIELD      CLOUDY    40  28  62 MISG      30.15F
$$

VAZ002-007-008-TNZ017-027-036-066-071-031700
...SOUTHWEST VIRGINIA/EAST TENNESSEE...

CITY           SKY/WX    TMP DP  RH WIND       PRES   REMARKS
WISE*          CLOUDY    45  45 100 S13       30.14F
JONESVILLE*    FOG       36  36 100 CALM      30.19F VSB 1
ABINGDON*      CLOUDY    40  37  87 E6        30.18F
BRISTOL        CLOUDY    46  34  62 CALM      30.18F
KNOXVILLE      CLOUDY    45  41  86 CALM      30.18
OAK RIDGE      LGT RAIN  43  41  93 S5        30.19F FOG
CROSSVILLE     CLOUDY    51  49  92 S8G17     30.13F FOG
NASHVILLE      CLOUDY    56  52  86 S14G21    30.08F
$$

...KEY TO REMARKS...
VSB - VISIBILITY IN MILES
WCI - WIND CHILL INDEX
HX  - HEAT INDEX

$$


USA.gov is the U.S. government's official web portal to all federal, state and local government web resources and services.